Waterbury, CT

4:34 PM EST on February 08, 2016 (GMT -0500)
Waterbury-Oxford

Weather History for KOXC - April, 2013

Change the Weather History Date:

Saturday, April 6, 2013

  Actual Average Record
Temperature  
Mean Temperature 37 °F -  
Max Temperature 44 °F 49 °F 69 °F (2005)
Min Temperature 30 °F 32 °F 24 °F (2002)
Degree Days  
Heating Degree Days 28    
Moisture  
Dew Point 14 °F    
Average Humidity 41    
Maximum Humidity 52    
Minimum Humidity 21    
Precipitation  
Precipitation 0.00 in - - ()
Sea Level Pressure  
Sea Level Pressure 30.16 in    
Wind  
Wind Speed 10 mph (NNW)    
Max Wind Speed 21 mph    
Max Gust Speed 29 mph    
Visibility 10 miles    
Events      
Averages and records for this station are not official NWS values.
T = Trace of Precipitation, MM = Missing Value Source: NWS Daily Summary

Daily Weather History Graph

Daily Weather History Graph

Search for Another Location

Airport or City:

Trip Planner

Search our weather history database for the weather conditions in past years. The results will help you decide how hot, cold, wet, or windy it might be!

Date:

Astronomy

Apr. 06, 2013 Rise Set
Actual Time 6:26 AM EDT 7:23 PM EDT
Civil Twilight 5:58 AM EDT 7:51 PM EDT
Nautical Twilight 5:25 AM EDT 8:25 PM EDT
Astronomical Twilight 4:50 AM EDT 9:00 PM EDT
Moon 4:11 AM EDT (4/6) 3:46 PM EDT (4/6)
Length of Visible Light 13h 52m
Length of Day
12h 56m
Waning Crescent, 15% of the Moon is Illuminated
Apr 6
Waning Crescent
Apr 10
New
Apr 18
First Quarter
Apr 25
Full
May 2
Last Quarter

Hourly Weather History & Observations

Time (EDT) Temp. Windchill Dew Point Humidity Pressure Visibility Wind Dir Wind Speed Gust Speed Precip Events Conditions
12:15 AM 37.4 °F 29.8 °F 19.4 °F 48% 29.96 in 10.0 mi NNW 11.5 mph 24.2 mph N/A   Clear
12:35 AM 37.4 °F 31.4 °F 19.4 °F 48% 29.97 in 10.0 mi NW 8.1 mph 19.6 mph N/A   Clear
12:55 AM 35.6 °F 28.0 °F 19.4 °F 52% 29.97 in 10.0 mi NNW 10.4 mph - N/A   Clear
1:15 AM 35.6 °F 27.5 °F 17.6 °F 48% 29.98 in 10.0 mi NW 11.5 mph 17.3 mph N/A   Clear
1:35 AM 35.6 °F 29.2 °F 17.6 °F 48% 29.98 in 10.0 mi NW 8.1 mph 18.4 mph N/A   Clear
1:55 AM 35.6 °F 29.2 °F 17.6 °F 48% 29.98 in 10.0 mi NW 8.1 mph 17.3 mph N/A   Clear
2:16 AM 35.6 °F 27.5 °F 17.6 °F 48% 29.99 in 10.0 mi NNW 11.5 mph 20.7 mph N/A   Clear
2:35 AM 35.6 °F 25.2 °F 17.6 °F 48% 30.00 in 10.0 mi NW 18.4 mph 25.3 mph N/A   Clear
2:55 AM 35.6 °F 27.1 °F 17.6 °F 48% 30.01 in 10.0 mi NNW 12.7 mph 21.9 mph N/A   Clear
3:15 AM 33.8 °F 25.8 °F 15.8 °F 48% 30.02 in 10.0 mi NW 10.4 mph 21.9 mph N/A   Clear
3:35 AM 33.8 °F 27.0 °F 15.8 °F 48% 30.03 in 10.0 mi NW 8.1 mph - N/A   Clear
3:55 AM 33.8 °F 27.7 °F 17.6 °F 52% 30.04 in 10.0 mi NNW 6.9 mph - N/A   Mostly Cloudy
4:15 AM 33.8 °F 24.3 °F 17.6 °F 52% 30.05 in 10.0 mi NNW 13.8 mph 19.6 mph N/A   Overcast
4:35 AM 33.8 °F 22.5 °F 17.6 °F 52% 30.07 in 10.0 mi NNW 19.6 mph 28.8 mph N/A   Overcast
4:55 AM 33.8 °F 24.8 °F 15.8 °F 48% 30.08 in 10.0 mi NNW 12.7 mph 20.7 mph N/A   Scattered Clouds
5:15 AM 32.0 °F 23.6 °F 15.8 °F 51% 30.09 in 10.0 mi NNW 10.4 mph 17.3 mph N/A   Clear
5:35 AM 32.0 °F 21.6 °F 15.8 °F 51% 30.11 in 10.0 mi NNW 15.0 mph 23.0 mph N/A   Partly Cloudy
5:45 AM 30.2 °F 19.3 °F 14.0 °F 51% 30.12 in 10.0 mi NNW 15.0 mph 23.0 mph N/A   Partly Cloudy
7:55 AM 30.2 °F 19.3 °F 8.6 °F 40% 30.19 in 10.0 mi North 15.0 mph 25.3 mph N/A   Clear
8:45 AM 32.0 °F 19.8 °F 6.8 °F 35% 30.21 in 10.0 mi North 20.7 mph 26.5 mph N/A   Clear
9:45 AM 33.8 °F 24.3 °F 8.6 °F 35% 30.23 in 10.0 mi North 13.8 mph 17.3 mph N/A   Clear
10:50 AM 35.6 °F 25.5 °F 8.6 °F 33% 30.24 in 10.0 mi NNE 17.3 mph 20.7 mph N/A   Clear
11:45 AM 37.4 °F 29.8 °F 8.6 °F 30% 30.25 in 10.0 mi North 11.5 mph 23.0 mph N/A   Clear
12:45 PM 39.2 °F 33.0 °F 10.4 °F 31% 30.25 in 10.0 mi North 9.2 mph 19.6 mph N/A   Clear
1:45 PM 42.8 °F 36.6 °F 8.6 °F 25% 30.25 in 10.0 mi North 11.5 mph 20.7 mph N/A   Clear
2:45 PM 42.8 °F 36.6 °F 10.4 °F 27% 30.25 in 10.0 mi NNW 11.5 mph 20.7 mph N/A   Clear
4:45 PM 44.6 °F 38.8 °F 8.6 °F 23% 30.24 in 10.0 mi North 11.5 mph - N/A   Clear
6:45 PM 44.6 °F 41.4 °F 6.8 °F 21% 30.27 in 10.0 mi NNE 5.8 mph - N/A   Clear
7:45 PM 42.8 °F - 5.0 °F 21% 30.29 in 10.0 mi Calm Calm - N/A   Clear
8:55 PM 37.4 °F 34.9 °F 6.8 °F 28% 30.30 in 10.0 mi South 3.5 mph - N/A   Clear
9:15 PM 39.2 °F 37.0 °F 8.6 °F 28% 30.31 in 10.0 mi South 3.5 mph - N/A   Clear
9:35 PM 39.2 °F 37.0 °F 8.6 °F 28% 30.31 in 10.0 mi South 3.5 mph - N/A   Clear
9:55 PM 37.4 °F 32.8 °F 12.2 °F 36% 30.31 in 10.0 mi SSE 5.8 mph - N/A   Clear
10:16 PM 37.4 °F 33.8 °F 14.0 °F 38% 30.31 in 10.0 mi South 4.6 mph - N/A   Clear
10:35 PM 37.4 °F 33.8 °F 17.6 °F 45% 30.31 in 10.0 mi SE 4.6 mph - N/A   Clear
10:55 PM 37.4 °F - 17.6 °F 45% 30.30 in 10.0 mi Calm Calm - N/A   Clear
11:15 PM 35.6 °F 32.8 °F 17.6 °F 48% 30.30 in 10.0 mi SSE 3.5 mph - N/A   Clear
11:35 PM 35.6 °F 32.8 °F 19.4 °F 52% 30.31 in 10.0 mi SSW 3.5 mph - N/A   Clear
11:55 PM 35.6 °F 32.8 °F 19.4 °F 52% 30.31 in 10.0 mi South 3.5 mph - N/A   Clear